COSMOS 1247 DEB, 26786

Orbit data source: Space-Track

COSMOS 1247 DEB, 26786 is space debris in HEO originally from a launch on Thu, 19 Feb 1981 UTC launched from the Plesetsk Missile And Space Complex (PKMTR). Debris objects in space refer to the collection of defunct objects orbiting the Earth. Examples of debris include non-operational satellites, rocket bodies, and fragments generated from explosions, collisions, or faulty payload assembly.

Loading next visibility...
Identifier
26786, 1981-016J
Orbit
HEO
Country
Flag of CISCIS
Related business
Manufacturer
Unknown
Mission
Spacecraft
Bus & Motor
Unknown
Mass
Unknown
Launch date (UTC)
1981-02-19 (45 years ago)
Launch vehicle
Unknown
Launch site
Plesetsk Missile And Space Complex (PKMTR)
Object type
Payload
Rocket body
Debris
Shape & HBR
Unknown shape, 0.6 m
Radar Cross Section
Medium (>0.1 m² and <1 m²)

Expand to show TLE details & history
Last TLE update: 9 months ago

TLE from 9 months ago
0 COSMOS 1247 DEB
1 26786U 81016J   25258.36909175 -.00000620  00000-0  00000-0 0  9996
2 26786  70.3413  32.8740 5689468 331.1693   6.6416  2.05138850219114
Epoch: 2025-09-15T08:51Z
TLE epoch observation values (Epoch: 2025-09-15T08:51:29.527Z)
Latitude
0.00008°
Longitude
-94.58937°
Altitude
5,418.412 km
Speed
7.235 km/s
True Right ascension
02h 11m 26s
True Declination
0° 00' 00"
Sunlit
Object was in daylight at epoch
Visualization orbit readout
Latitude
Unknown
Longitude
Unknown
Altitude
Unknown
Speed
Unknown
Apparent Right ascension
Unknown
Apparent Declination
Unknown
Sunlit
N/A
Visualization observer readout
Local Sidereal Time
23:08:15
Azimuth
Unknown
Elevation
Unknown
Doppler factor
Unknown
Orbital elements
Apogee altitude
34,670.158 km
Perigee altitude
4,899.491 km
Semi-major axis
26,162.962 km
Eccentricity
0.56895
Inclination
70.3413°
RAAN
32.874°
Arg. of periapsis
331.1693°
True anomaly
28.51709°
Mean anomaly
6.6416°
Eccentric anomaly
15.17452°
Mean motion
0.51288 °/min
Orbital period
701.92 mins
BSTAR
0
Loading maneuver chart data...
Computing Atmospheric mass density...
Loading historical data...
Loading historical data...
Loading historical data...
Loading historical data...
Loading historical data...
Loading historical data...
Loading historical data...

Documentation

Showing up to 5 results
|